Terminal Aerodrome Forecast
Issued by NWS

Home | Current Version | Previous Version | Text Only | Print | Product List | Glossary On
Versions: 1 2 3 4 5 6 7 8 9 10 11 12 13 14 15 16 17 18 19 20 21 22 23 24 25 26
000
FTUS45 KGJT 021120
TAFDRO
TAF
KDRO 021120Z 0212/0312 34005KT P6SM SKC
     FM021800 24008KT P6SM SKC
     FM022000 26010G20KT P6SM SKC
     FM030200 25004KT P6SM SKC=

USA.gov is the U.S. government's official web portal to all federal, state and local government web resources and services.